PHOENIX (45258 NORAD) Tracking and Keplerian Element Data

This shows tracking and keplerian element data for the satellite.

Feedback or suggestion? Click here.




ElementValue
Catalog45258
NamePHOENIX
Epoch Orbit678
Epoch Day94.10402545
Epoch Year2020
RAAN359.71
Inclination51.6431
Eccentricity0.0006992
Argument of Perigee68.0846
Mean Anonmoly292.0886
Mean Motion15.5021598
Decay Rate4.636E-05
L11 45258U 98067RB 20094.10402545 .00004636 00000-0 88499-4 0 9991
L22 45258 51.6431 359.7100 0006992 68.0846 292.0886 15.50215980 6781

Live tracking and technical data element details for PHOENIX (NORAD 45258). PHOENIX can be tracked NOW for your location showing map with azimuth and elevation plus other details from your city location.

Track the satellite on the map from your city or location and see movement details for azimuth, elevation, latitude, longitude, range, height, and movement on the map or in text.







IsCatalogInMostPopularTable: catalog: 45258, numindb: 12
Update: records affected: 1



GetName: 45258 PHOENIX

Hit Count: updated at: Mon, 06 Apr 2020 11:40:30 GMT